When you browse on this site, cookies collect data to enhance your experience and personalize the content and advertising you see.
Visit our Privacy Policy to learn more. By continuing to use the site, you agree to this use of cookies and data.
  • In Sweden
  • List of Countries
  • For 7 days
  • Water Temperature
  • Satellite Maps
  • Weather Map
  • Weather Widgets
  • user-avatar
    Login

    Hourly Weather Kozlyatskoe

    Today, 26 May, Sunday

    Time Temperature Precipitation Wind Pressure Humidity
    00:00 +12°C° 0 mm 5 mps 744 mmHg 63%
    01:00 +12°C° 0 mm 5 mps 744 mmHg 66%
    02:00 +10°C° 0 mm 5 mps 744 mmHg 68%
    03:00 +10°C° 0 mm 4 mps 743 mmHg 70%
    04:00 +11°C° 0.1 mm 4 mps 743 mmHg 71%
    05:00 +10°C° 0.1 mm 5 mps 743 mmHg 72%
    06:00 +10°C° 0.1 mm 5 mps 743 mmHg 73%
    07:00 +12°C° 0.2 mm 5 mps 743 mmHg 74%
    08:00 +14°C° 0.2 mm 5 mps 743 mmHg 75%
    09:00 +15°C° 0 mm 6 mps 742 mmHg 75%
    10:00 +17°C° 0.1 mm 6 mps 742 mmHg 71%
    11:00 +20°C° 0.1 mm 6 mps 741 mmHg 68%
    12:00 +21°C° 0.1 mm 6 mps 741 mmHg 64%
    13:00 +21°C° 0.2 mm 6 mps 741 mmHg 64%
    14:00 +22°C° 0.2 mm 6 mps 740 mmHg 65%
    15:00 +22°C° 0.2 mm 7 mps 740 mmHg 65%
    16:00 +21°C° 0.4 mm 6 mps 739 mmHg 69%
    17:00 +21°C° 0.4 mm 5 mps 739 mmHg 73%
    18:00 +20°C° 0.4 mm 4 mps 738 mmHg 77%
    19:00 +19°C° 0.2 mm 4 mps 738 mmHg 83%
    20:00 +17°C° 0.2 mm 3 mps 738 mmHg 88%
    21:00 +14°C° 0.2 mm 3 mps 738 mmHg 93%
    22:00 +14°C° 0 mm 3 mps 738 mmHg 94%
    23:00 +14°C° 0 mm 2 mps 738 mmHg 95%

    Tomorrow, 27 May, Monday

    Time Temperature Precipitation Wind Pressure Humidity
    00:00 +14°C° 0 mm 2 mps 738 mmHg 96%
    01:00 +13°C° 0 mm 2 mps 738 mmHg 97%
    02:00 +13°C° 0 mm 2 mps 738 mmHg 97%
    03:00 +13°C° 0 mm 2 mps 738 mmHg 97%
    04:00 +13°C° 0 mm 3 mps 739 mmHg 97%
    05:00 +13°C° 0 mm 3 mps 739 mmHg 96%
    06:00 +14°C° 0 mm 4 mps 740 mmHg 95%
    07:00 +15°C° 0 mm 4 mps 740 mmHg 91%
    08:00 +18°C° 0 mm 4 mps 741 mmHg 86%
    09:00 +19°C° 0 mm 4 mps 741 mmHg 81%
    10:00 +20°C° 0.2 mm 4 mps 742 mmHg 76%
    11:00 +21°C° 0.2 mm 5 mps 742 mmHg 70%
    12:00 +22°C° 0.2 mm 5 mps 743 mmHg 64%
    13:00 +22°C° 0 mm 6 mps 743 mmHg 63%
    14:00 +22°C° 0 mm 6 mps 743 mmHg 61%
    15:00 +22°C° 0 mm 6 mps 744 mmHg 59%
    16:00 +22°C° 0 mm 5 mps 744 mmHg 62%
    17:00 +21°C° 0 mm 5 mps 745 mmHg 66%
    18:00 +20°C° 0 mm 4 mps 745 mmHg 70%
    19:00 +19°C° 0 mm 3 mps 745 mmHg 75%
    20:00 +17°C° 0 mm 3 mps 746 mmHg 80%
    21:00 +15°C° 0 mm 2 mps 746 mmHg 84%
    22:00 +15°C° 0 mm 2 mps 747 mmHg 86%
    23:00 +15°C° 0 mm 2 mps 747 mmHg 88%

    Day after tomorrow, 28 May, Tuesday

    Time Temperature Precipitation Wind Pressure Humidity
    00:00 +14°C° 0 mm 2 mps 748 mmHg 90%
    01:00 +14°C° 0 mm 2 mps 748 mmHg 91%
    02:00 +14°C° 0 mm 2 mps 748 mmHg 92%
    03:00 +13°C° 0 mm 2 mps 748 mmHg 92%
    04:00 +14°C° 0 mm 2 mps 749 mmHg 90%
    05:00 +15°C° 0 mm 2 mps 749 mmHg 88%
    06:00 +16°C° 0 mm 2 mps 749 mmHg 86%
    07:00 +17°C° 0 mm 2 mps 749 mmHg 80%
    08:00 +19°C° 0 mm 3 mps 750 mmHg 74%
    09:00 +21°C° 0 mm 3 mps 750 mmHg 68%
    10:00 +22°C° 0 mm 3 mps 750 mmHg 65%
    11:00 +24°C° 0 mm 3 mps 750 mmHg 62%
    12:00 +24°C° 0 mm 3 mps 750 mmHg 59%
    13:00 +25°C° 0 mm 3 mps 750 mmHg 58%
    14:00 +25°C° 0 mm 3 mps 750 mmHg 58%
    15:00 +26°C° 0 mm 3 mps 750 mmHg 57%
    16:00 +25°C° 0 mm 3 mps 750 mmHg 61%
    17:00 +25°C° 0 mm 2 mps 750 mmHg 65%
    18:00 +25°C° 0 mm 2 mps 750 mmHg 68%
    19:00 +23°C° 0 mm 2 mps 750 mmHg 72%
    20:00 +20°C° 0 mm 2 mps 750 mmHg 75%
    21:00 +19°C° 0 mm 2 mps 751 mmHg 78%
    22:00 +18°C° 0 mm 2 mps 751 mmHg 80%
    23:00 +17°C° 0 mm 2 mps 751 mmHg 82%

    29 May, Wednesday

    Time Temperature Precipitation Wind Pressure Humidity
    00:00 +17°C° 0 mm 2 mps 751 mmHg 83%
    01:00 +17°C° 0 mm 2 mps 751 mmHg 85%
    02:00 +16°C° 0 mm 2 mps 751 mmHg 86%
    03:00 +16°C° 0 mm 2 mps 752 mmHg 87%
    04:00 +17°C° 0 mm 2 mps 752 mmHg 86%
    05:00 +18°C° 0 mm 2 mps 752 mmHg 84%
    06:00 +18°C° 0 mm 2 mps 752 mmHg 83%
    07:00 +20°C° 0 mm 2 mps 752 mmHg 77%
    08:00 +23°C° 0 mm 2 mps 752 mmHg 72%
    09:00 +24°C° 0 mm 3 mps 752 mmHg 67%
    10:00 +25°C° 0 mm 3 mps 752 mmHg 63%
    11:00 +26°C° 0 mm 3 mps 752 mmHg 59%
    12:00 +27°C° 0 mm 3 mps 752 mmHg 56%
    13:00 +27°C° 0 mm 3 mps 752 mmHg 55%
    14:00 +28°C° 0 mm 3 mps 752 mmHg 54%
    15:00 +28°C° 0 mm 3 mps 752 mmHg 53%
    16:00 +28°C° 0 mm 2 mps 751 mmHg 57%
    17:00 +27°C° 0 mm 2 mps 751 mmHg 61%
    18:00 +27°C° 0 mm 2 mps 751 mmHg 66%
    19:00 +25°C° 0 mm 1 mps 751 mmHg 69%
    20:00 +23°C° 0 mm 1 mps 751 mmHg 72%
    21:00 +21°C° 0 mm 1 mps 751 mmHg 75%
    22:00 +21°C° 0 mm 1 mps 752 mmHg 77%
    23:00 +20°C° 0 mm 1 mps 752 mmHg 78%

    30 May, Thursday

    Time Temperature Precipitation Wind Pressure Humidity
    00:00 +20°C° 0 mm 1 mps 752 mmHg 80%
    01:00 +19°C° 0 mm 1 mps 752 mmHg 81%
    02:00 +19°C° 0 mm 1 mps 752 mmHg 82%
    03:00 +19°C° 0 mm 1 mps 752 mmHg 84%
    04:00 +20°C° 0 mm 1 mps 752 mmHg 82%
    05:00 +21°C° 0 mm 1 mps 753 mmHg 80%
    06:00 +21°C° 0 mm 1 mps 753 mmHg 78%
    07:00 +23°C° 0 mm 2 mps 753 mmHg 73%
    08:00 +25°C° 0 mm 2 mps 753 mmHg 68%
    09:00 +26°C° 0 mm 2 mps 752 mmHg 62%
    10:00 +27°C° 0 mm 2 mps 752 mmHg 59%
    11:00 +28°C° 0 mm 3 mps 752 mmHg 56%
    12:00 +29°C° 0 mm 3 mps 752 mmHg 52%
    13:00 +29°C° 0 mm 3 mps 752 mmHg 52%
    14:00 +29°C° 0 mm 3 mps 752 mmHg 51%
    15:00 +29°C° 0 mm 3 mps 752 mmHg 51%
    16:00 +29°C° 0 mm 2 mps 751 mmHg 55%
    17:00 +29°C° 0 mm 2 mps 751 mmHg 59%
    18:00 +28°C° 0 mm 2 mps 751 mmHg 63%
    19:00 +26°C° 0 mm 1 mps 751 mmHg 66%
    20:00 +25°C° 0 mm 1 mps 751 mmHg 69%
    21:00 +23°C° 0 mm 1 mps 751 mmHg 73%
    22:00 +22°C° 0 mm 1 mps 751 mmHg 74%
    23:00 +22°C° 0 mm 1 mps 752 mmHg 75%

    31 May, Friday

    Time Temperature Precipitation Wind Pressure Humidity
    00:00 +21°C° 0 mm 1 mps 752 mmHg 76%
    01:00 +21°C° 0 mm 1 mps 752 mmHg 77%
    02:00 +20°C° 0 mm 1 mps 752 mmHg 78%
    03:00 +20°C° 0 mm 1 mps 752 mmHg 79%
    04:00 +21°C° 0 mm 1 mps 752 mmHg 78%
    05:00 +22°C° 0 mm 1 mps 752 mmHg 78%
    06:00 +23°C° 0 mm 1 mps 752 mmHg 77%
    07:00 +24°C° 0 mm 2 mps 752 mmHg 72%
    08:00 +26°C° 0 mm 2 mps 752 mmHg 67%
    09:00 +27°C° 0 mm 2 mps 752 mmHg 61%
    10:00 +28°C° 0 mm 2 mps 751 mmHg 57%
    11:00 +29°C° 0 mm 3 mps 751 mmHg 54%
    12:00 +30°C° 0 mm 3 mps 751 mmHg 50%
    13:00 +30°C° 0 mm 3 mps 751 mmHg 50%
    14:00 +30°C° 0 mm 2 mps 750 mmHg 51%
    15:00 +30°C° 0 mm 2 mps 750 mmHg 51%
    16:00 +29°C° 0 mm 2 mps 750 mmHg 54%
    17:00 +29°C° 0 mm 2 mps 750 mmHg 58%
    18:00 +28°C° 0 mm 1 mps 750 mmHg 61%
    19:00 +27°C° 0 mm 1 mps 750 mmHg 63%
    20:00 +25°C° 0 mm 2 mps 750 mmHg 64%
    21:00 +24°C° 0 mm 2 mps 750 mmHg 66%
    22:00 +23°C° 0 mm 2 mps 750 mmHg 68%
    23:00 +23°C° 0 mm 2 mps 750 mmHg 69%
    Show more